Statesville, NC

11:53 PM EST on February 22, 2017 (GMT -0500)
Statesville Municipal

Weather History for KSVH - September, 2012

Change the Weather History Date:

Sunday, September 30, 2012

  Actual Average (KHKY) Record (KHKY)
Temperature  
Mean Temperature 60 °F -  
Max Temperature 69 °F 73 °F 91 °F (1954)
Min Temperature 51 °F 52 °F 35 °F (1967)
Degree Days  
Heating Degree Days 5    
Growing Degree Days 10 (Base 50)    
Moisture  
Dew Point 54 °F    
Average Humidity 81    
Maximum Humidity 100    
Minimum Humidity 49    
Precipitation  
Precipitation 0.00 in - - ()
Sea Level Pressure  
Sea Level Pressure 29.92 in    
Wind  
Wind Speed 2 mph (NE)    
Max Wind Speed 8 mph    
Max Gust Speed -    
Visibility 7 miles    
Events Fog    
Averages and records for this station are not official NWS values.
T = Trace of Precipitation, MM = Missing Value Source: NWS Daily Summary

Daily Weather History Graph

Daily Weather History Graph

Search for Another Location

Airport or City:

Trip Planner

Search our weather history database for the weather conditions in past years. The results will help you decide how hot, cold, wet, or windy it might be!

Date:

Astronomy

Sep. 30, 2012 Rise Set
Actual Time 7:18 AM EDT 7:08 PM EDT
Civil Twilight 6:52 AM EDT 7:33 PM EDT
Nautical Twilight 6:23 AM EDT 8:03 PM EDT
Astronomical Twilight 5:53 AM EDT 8:33 PM EDT
Moon 7:14 PM EDT (9/30) 7:44 AM EDT (9/30)
Length of Visible Light 12h 40m
Length of Day
11h 49m
Full, 100% of the Moon is Illuminated
Sep 30
Full
Oct 8
Last Quarter
Oct 15
New
Oct 21
First Quarter
Oct 29
Full

Hourly Weather History & Observations

Time (EDT) Temp. Dew Point Humidity Pressure Visibility Wind Dir Wind Speed Gust Speed Precip Events Conditions
12:15 AM 59.0 °F 59.0 °F 100% 29.95 in 1.5 mi North 3.5 mph - N/A   Overcast
12:35 AM 59.0 °F 59.0 °F 100% 29.95 in 1.0 mi Calm Calm - N/A   Overcast
12:55 AM 59.0 °F 59.0 °F 100% 29.94 in 2.0 mi North 5.8 mph - N/A   Overcast
1:15 AM 59.0 °F 59.0 °F 100% 29.94 in 5.0 mi Calm Calm - N/A   Overcast
2:15 AM 59.0 °F 57.2 °F 94% 29.94 in 5.0 mi NNE 3.5 mph - N/A   Overcast
2:35 AM 59.0 °F 57.2 °F 94% 29.94 in 7.0 mi North 4.6 mph - N/A   Mostly Cloudy
2:55 AM 59.0 °F 57.2 °F 94% 29.93 in 5.0 mi Calm Calm - N/A   Clear
3:15 AM 57.2 °F 55.4 °F 94% 29.93 in 1.5 mi Calm Calm - N/A   Mist
3:35 AM 57.2 °F 55.4 °F 94% 29.93 in 1.8 mi Calm Calm - N/A   Scattered Clouds
3:55 AM 55.4 °F 53.6 °F 94% 29.94 in 0.8 mi Calm Calm - N/A   Overcast
4:15 AM 57.2 °F 55.4 °F 94% 29.94 in 4.0 mi Calm Calm - N/A   Overcast
4:35 AM 57.2 °F 55.4 °F 94% 29.93 in 2.5 mi Calm Calm - N/A   Overcast
5:15 AM 55.4 °F 55.4 °F 100% 29.93 in 0.2 mi Calm Calm - N/A Fog Fog
5:35 AM 55.4 °F 53.6 °F 94% 29.93 in 0.2 mi Calm Calm - N/A Fog Fog
5:55 AM 55.4 °F 53.6 °F 94% 29.93 in 0.2 mi Calm Calm - N/A Fog Fog
6:15 AM 53.6 °F 53.6 °F 100% 29.93 in 0.2 mi Calm Calm - N/A Fog Fog
6:35 AM 53.6 °F 53.6 °F 100% 29.92 in 0.2 mi Calm Calm - N/A Fog Fog
6:55 AM 51.8 °F 51.8 °F 100% 29.93 in 0.2 mi Calm Calm - N/A Fog Fog
7:15 AM 53.6 °F 51.8 °F 94% 29.93 in 0.2 mi Calm Calm - N/A Fog Fog
7:35 AM 51.8 °F 51.8 °F 100% 29.93 in 0.2 mi Calm Calm - N/A Fog Fog
7:55 AM 51.8 °F 51.8 °F 100% 29.94 in 0.2 mi Calm Calm - N/A Fog Fog
8:15 AM 51.8 °F 51.8 °F 100% 29.94 in 0.5 mi Calm Calm - N/A Fog Fog
8:35 AM 53.6 °F 51.8 °F 94% 29.95 in 4.0 mi Calm Calm - N/A   Clear
8:55 AM 53.6 °F 51.8 °F 94% 29.95 in 7.0 mi Calm Calm - N/A   Scattered Clouds
9:15 AM 53.6 °F 53.6 °F 100% 29.95 in 7.0 mi Calm Calm - N/A   Clear
9:35 AM 55.4 °F 53.6 °F 94% 29.95 in 10.0 mi North 4.6 mph - N/A   Clear
9:55 AM 57.2 °F 51.8 °F 82% 29.95 in 10.0 mi NE 6.9 mph - N/A   Clear
10:15 AM 59.0 °F 50.0 °F 72% 29.95 in 10.0 mi NNE 8.1 mph - N/A   Clear
10:35 AM 59.0 °F 51.8 °F 77% 29.95 in 10.0 mi North 5.8 mph - N/A   Clear
10:55 AM 60.8 °F 51.8 °F 72% 29.95 in 10.0 mi NNE 5.8 mph - N/A   Clear
11:15 AM 60.8 °F 50.0 °F 68% 29.94 in 10.0 mi NNE 8.1 mph - N/A   Clear
11:35 AM 60.8 °F 50.0 °F 68% 29.94 in 10.0 mi ENE 3.5 mph - N/A   Clear
11:55 AM 62.6 °F 50.0 °F 63% 29.94 in 10.0 mi Calm Calm - N/A   Clear
12:15 PM 64.4 °F 50.0 °F 59% 29.94 in 10.0 mi East 3.5 mph - N/A   Clear
12:35 PM 64.4 °F 50.0 °F 59% 29.94 in 10.0 mi Calm Calm - N/A   Clear
12:55 PM 64.4 °F 50.0 °F 59% 29.94 in 10.0 mi Calm Calm - N/A   Clear
1:15 PM 64.4 °F 50.0 °F 59% 29.93 in 10.0 mi Calm Calm - N/A   Clear
1:35 PM 66.2 °F 51.8 °F 60% 29.92 in 10.0 mi Calm Calm - N/A   Clear
1:55 PM 68.0 °F 51.8 °F 56% 29.91 in 10.0 mi Calm Calm - N/A   Clear
2:15 PM 68.0 °F 51.8 °F 56% 29.91 in 10.0 mi SE 3.5 mph - N/A   Clear
2:35 PM 68.0 °F 50.0 °F 52% 29.90 in 10.0 mi South 3.5 mph - N/A   Clear
2:55 PM 66.2 °F 51.8 °F 60% 29.89 in 10.0 mi Calm Calm - N/A   Clear
3:15 PM 68.0 °F 51.8 °F 56% 29.89 in 10.0 mi Calm Calm - N/A   Clear
3:35 PM 68.0 °F 50.0 °F 52% 29.88 in 10.0 mi Calm Calm - N/A   Clear
4:15 PM 69.8 °F 50.0 °F 49% 29.88 in 10.0 mi SSE 3.5 mph - N/A   Clear
4:35 PM 69.8 °F 51.8 °F 53% 29.87 in 10.0 mi Calm Calm - N/A   Clear
4:55 PM 69.8 °F 51.8 °F 53% 29.87 in 10.0 mi SE 3.5 mph - N/A   Clear
5:15 PM 68.0 °F 51.8 °F 56% 29.87 in 10.0 mi SSW 3.5 mph - N/A   Clear
5:35 PM 68.0 °F 51.8 °F 56% 29.87 in 10.0 mi South 3.5 mph - N/A   Clear
5:55 PM 66.2 °F 51.8 °F 60% 29.87 in 10.0 mi Calm Calm - N/A   Clear
6:15 PM 64.4 °F 55.4 °F 73% 29.87 in 10.0 mi Calm Calm - N/A   Clear
6:35 PM 64.4 °F 53.6 °F 68% 29.88 in 10.0 mi Calm Calm - N/A   Clear
6:55 PM 64.4 °F 55.4 °F 73% 29.88 in 10.0 mi Calm Calm - N/A   Clear
7:15 PM 60.8 °F 55.4 °F 82% 29.89 in 10.0 mi Calm Calm - N/A   Clear
7:35 PM 60.8 °F 55.4 °F 82% 29.88 in 10.0 mi Calm Calm - N/A   Clear
7:55 PM 60.8 °F 57.2 °F 88% 29.89 in 10.0 mi Calm Calm - N/A   Clear
8:15 PM 60.8 °F 55.4 °F 82% 29.89 in 10.0 mi Calm Calm - N/A   Clear
8:35 PM 59.0 °F 55.4 °F 88% 29.89 in 10.0 mi Calm Calm - N/A   Clear
8:55 PM 60.8 °F 57.2 °F 88% 29.89 in 10.0 mi Calm Calm - N/A   Clear
9:15 PM 60.8 °F 55.4 °F 82% 29.90 in 10.0 mi Calm Calm - N/A   Clear
9:35 PM 59.0 °F 55.4 °F 88% 29.90 in 10.0 mi Calm Calm - N/A   Clear
9:55 PM 59.0 °F 55.4 °F 88% 29.91 in 10.0 mi Calm Calm - N/A   Clear
10:15 PM 59.0 °F 55.4 °F 88% 29.91 in 10.0 mi Calm Calm - N/A   Clear
10:35 PM 59.0 °F 55.4 °F 88% 29.90 in 10.0 mi Calm Calm - N/A   Clear
10:55 PM 59.0 °F 55.4 °F 88% 29.90 in 10.0 mi Calm Calm - N/A   Clear
11:15 PM 59.0 °F 55.4 °F 88% 29.90 in 10.0 mi Calm Calm - N/A   Clear
11:35 PM 60.8 °F 55.4 °F 82% 29.90 in 10.0 mi Calm Calm - N/A   Clear
11:55 PM 59.0 °F 55.4 °F 88% 29.91 in 10.0 mi Calm Calm - N/A   Clear